Tracking 30995 objects as of 7-Jul-2025
HD Live streaming from Space Station
objects crossing your sky now

FENGYUN 1C DEB

Track FENGYUN 1C DEB now!
10-day predictions


NORAD ID: 33731
Int'l Code: 1999-025DHU
Perigee: 822.5 km
Apogee: 1,016.6 km
Inclination: 99.5 °
Period: 103.3 minutes
Semi major axis: 7290 km
RCS: 0.0076 m2 (small)
Launch date: May 10, 1999
Source: People's Republic of China (PRC)
Launch site: Taiyaun Space Center, China (TSC)

Note: This is SATELLITE DEBRIS
Your satellite tracking list
FREGAT R/B
Track 1 satellite(s)




NASA's NSSDC Master Catalog

Two Line Element Set (TLE):
1 33731U 99025DHU 25187.00967867  .00001803  00000-0  12836-2 0  9992
2 33731  99.4555 205.2867 0133146 126.6568 234.6918 13.94642342882221
Source of the keplerian elements: AFSPC